TimeHST,TemperatureF,Dew PointF,Humidity,Sea Level PressureIn,VisibilityMPH,Wind Direction,Wind SpeedMPH,Gust SpeedMPH,PrecipitationIn,Events,Conditions,WindDirDegrees,DateUTC
12:47 AM,64.4,64.4,100,29.96,10.0,Calm,Calm,-,N/A,,Light Drizzle,0,2014-02-10 10:47:00
12:58 AM,65.5,64.2,96,29.95,10.0,Calm,Calm,-,0.00,,Light Drizzle,0,2014-02-10 10:58:00
1:14 AM,66.2,64.4,94,29.97,10.0,ENE,1.2,-,N/A,,Overcast,70,2014-02-10 11:14:00
1:39 AM,66.2,64.4,94,29.98,10.0,East,3.5,-,N/A,,Overcast,80,2014-02-10 11:39:00
1:54 AM,68.0,64.4,88,29.98,10.0,Calm,Calm,-,N/A,,Light Drizzle,0,2014-02-10 11:54:00
1:58 AM,67.3,64.9,92,29.96,10.0,Calm,Calm,-,0.00,,Light Drizzle,0,2014-02-10 11:58:00
2:03 AM,68.0,64.4,88,29.98,10.0,ESE,1.2,-,N/A,Rain,Light Rain,110,2014-02-10 12:03:00
2:10 AM,66.2,64.4,94,29.99,10.0,West,1.2,-,N/A,,Overcast,270,2014-02-10 12:10:00
2:14 AM,66.2,64.4,94,29.99,10.0,WSW,2.3,-,N/A,,Light Drizzle,240,2014-02-10 12:14:00
2:21 AM,66.2,64.4,94,29.99,10.0,SW,3.5,-,N/A,,Overcast,220,2014-02-10 12:21:00
2:29 AM,68.0,66.2,94,29.99,10.0,SSW,2.3,-,N/A,,Light Drizzle,210,2014-02-10 12:29:00
2:53 AM,69.8,66.2,88,29.98,10.0,ESE,4.6,-,N/A,,Overcast,120,2014-02-10 12:53:00
2:58 AM,69.1,65.8,89,29.96,10.0,SE,2.3,-,0.00,,Overcast,140,2014-02-10 12:58:00
2:59 AM,69.8,66.2,88,29.98,9.0,SE,2.3,-,N/A,,Light Drizzle,130,2014-02-10 12:59:00
3:08 AM,68.0,66.2,94,29.98,9.0,ESE,3.5,-,N/A,,Mostly Cloudy,110,2014-02-10 13:08:00
3:18 AM,68.0,66.2,94,29.98,10.0,East,3.5,-,N/A,,Scattered Clouds,100,2014-02-10 13:18:00
3:58 AM,68.0,65.7,92,29.94,10.0,ENE,5.8,-,0.00,,Mostly Cloudy,70,2014-02-10 13:58:00
4:13 AM,68.0,66.2,94,29.97,10.0,East,4.6,-,N/A,,Mostly Cloudy,90,2014-02-10 14:13:00
4:26 AM,68.0,66.2,94,29.98,9.0,SSW,3.5,-,N/A,,Light Drizzle,200,2014-02-10 14:26:00
4:36 AM,68.0,66.2,94,29.98,4.0,ESE,4.6,-,N/A,,Light Drizzle,110,2014-02-10 14:36:00
4:50 AM,68.0,66.2,94,29.97,7.0,East,6.9,-,N/A,,Scattered Clouds,100,2014-02-10 14:50:00
4:58 AM,68.2,66.4,94,29.95,10.0,ENE,9.2,-,0.00,,Scattered Clouds,70,2014-02-10 14:58:00
5:37 AM,68.0,66.2,94,29.98,9.0,East,4.6,-,N/A,,Light Drizzle,100,2014-02-10 15:37:00
5:58 AM,68.4,66.6,94,29.97,8.0,Variable,2.3,-,0.01,,Light Drizzle,0,2014-02-10 15:58:00
6:23 AM,68.0,66.2,94,29.99,9.0,Calm,Calm,-,N/A,,Light Drizzle,0,2014-02-10 16:23:00
6:40 AM,68.0,66.2,94,29.99,10.0,South,2.3,-,N/A,,Mostly Cloudy,170,2014-02-10 16:40:00
6:44 AM,68.0,66.2,94,29.99,10.0,SE,2.3,-,N/A,Rain,Light Rain,130,2014-02-10 16:44:00
6:58 AM,68.0,66.2,94,29.97,10.0,ESE,2.3,-,0.01,Rain,Light Rain,110,2014-02-10 16:58:00
7:08 AM,68.0,66.2,94,29.99,10.0,ESE,3.5,-,N/A,Rain,Light Rain,110,2014-02-10 17:08:00
7:15 AM,68.0,66.2,94,29.99,10.0,SSE,2.3,-,N/A,,Scattered Clouds,150,2014-02-10 17:15:00
7:30 AM,68.0,66.2,94,30.00,10.0,Variable,2.3,-,N/A,,Light Drizzle,0,2014-02-10 17:30:00
7:35 AM,68.0,68.0,100,30.00,10.0,SSE,2.3,-,N/A,Rain,Light Rain,160,2014-02-10 17:35:00
7:40 AM,68.0,68.0,100,30.00,10.0,SSE,2.3,-,N/A,Rain,Light Rain,160,2014-02-10 17:40:00
7:58 AM,69.1,67.5,95,29.99,10.0,South,2.3,-,0.00,Rain,Light Rain,170,2014-02-10 17:58:00
8:23 AM,69.8,68.0,94,30.01,10.0,South,3.5,-,N/A,,Light Drizzle,170,2014-02-10 18:23:00
8:24 AM,69.8,68.0,94,30.01,10.0,South,2.3,-,N/A,,Mostly Cloudy,170,2014-02-10 18:24:00
8:39 AM,71.6,69.8,94,30.01,10.0,Variable,3.5,-,N/A,,Mostly Cloudy,0,2014-02-10 18:39:00
8:44 AM,71.6,69.8,94,30.01,10.0,Variable,3.5,-,N/A,,Scattered Clouds,0,2014-02-10 18:44:00
8:58 AM,72.7,70.2,92,30.00,10.0,SE,6.9,-,0.00,,Partly Cloudy,130,2014-02-10 18:58:00
9:23 AM,73.4,69.8,88,30.02,10.0,SE,4.6,-,N/A,,Mostly Cloudy,140,2014-02-10 19:23:00
9:28 AM,73.4,69.8,88,30.02,10.0,SE,5.8,-,N/A,,Mostly Cloudy,140,2014-02-10 19:28:00
9:38 AM,75.2,69.8,83,30.02,10.0,Variable,5.8,-,N/A,,Mostly Cloudy,0,2014-02-10 19:38:00
9:43 AM,75.2,69.8,83,30.02,10.0,Variable,4.6,-,N/A,,Mostly Cloudy,0,2014-02-10 19:43:00
9:58 AM,74.8,69.4,83,30.00,10.0,SE,8.1,-,N/A,,Mostly Cloudy,130,2014-02-10 19:58:00
10:08 AM,75.2,69.8,83,30.03,10.0,South,8.1,-,N/A,,Mostly Cloudy,180,2014-02-10 20:08:00
10:28 AM,75.2,69.8,83,30.02,10.0,South,8.1,-,N/A,,Mostly Cloudy,190,2014-02-10 20:28:00
10:43 AM,75.2,68.0,78,30.02,10.0,SSE,6.9,-,N/A,,Scattered Clouds,150,2014-02-10 20:43:00
10:58 AM,75.2,68.4,79,30.00,10.0,Variable,5.8,-,N/A,,Scattered Clouds,0,2014-02-10 20:58:00
11:03 AM,75.2,69.8,83,30.02,10.0,South,8.1,-,N/A,,Mostly Cloudy,180,2014-02-10 21:03:00
11:08 AM,77.0,69.8,78,30.02,10.0,South,5.8,-,N/A,,Mostly Cloudy,170,2014-02-10 21:08:00
11:58 AM,75.4,68.5,79,29.98,10.0,Variable,6.9,-,N/A,,Mostly Cloudy,0,2014-02-10 21:58:00
12:13 PM,77.0,68.0,74,29.99,10.0,SE,11.5,-,N/A,,Mostly Cloudy,140,2014-02-10 22:13:00
12:38 PM,77.0,68.0,74,29.99,10.0,South,9.2,-,N/A,,Mostly Cloudy,170,2014-02-10 22:38:00
12:43 PM,77.0,68.0,74,29.99,10.0,South,11.5,17.3,N/A,,Mostly Cloudy,170,2014-02-10 22:43:00
12:53 PM,77.0,68.0,74,29.98,10.0,South,10.4,18.4,N/A,,Mostly Cloudy,170,2014-02-10 22:53:00
12:58 PM,77.0,67.1,71,29.96,10.0,SSE,12.7,18.4,N/A,,Mostly Cloudy,150,2014-02-10 22:58:00
1:03 PM,77.0,66.2,69,29.97,10.0,South,10.4,18.4,N/A,,Mostly Cloudy,170,2014-02-10 23:03:00
1:48 PM,77.0,66.2,69,29.96,10.0,South,9.2,-,N/A,,Mostly Cloudy,180,2014-02-10 23:48:00
1:58 PM,77.0,66.2,69,29.94,10.0,South,9.2,-,N/A,,Mostly Cloudy,170,2014-02-10 23:58:00
2:03 PM,77.0,64.4,65,29.95,10.0,South,10.4,17.3,N/A,,Mostly Cloudy,170,2014-02-11 00:03:00
2:58 PM,77.4,66.6,69,29.91,10.0,SSE,11.5,17.3,N/A,,Partly Cloudy,150,2014-02-11 00:58:00
3:58 PM,77.0,65.8,68,29.91,10.0,South,11.5,17.3,N/A,,Partly Cloudy,190,2014-02-11 01:58:00
4:58 PM,76.6,65.8,69,29.93,10.0,South,8.1,-,N/A,,Clear,180,2014-02-11 02:58:00
5:58 PM,75.0,66.2,74,29.95,10.0,South,5.8,-,N/A,,Clear,180,2014-02-11 03:58:00
6:20 PM,73.4,66.2,78,29.98,10.0,Variable,2.3,-,N/A,,Light Drizzle,0,2014-02-11 04:20:00
6:30 PM,71.6,66.2,83,29.98,10.0,SW,3.5,-,N/A,,Partly Cloudy,220,2014-02-11 04:30:00
6:58 PM,71.4,66.4,84,29.97,10.0,SW,1.2,-,0.00,Rain,Light Rain,220,2014-02-11 04:58:00
7:12 PM,71.6,66.2,83,30.00,10.0,Variable,2.3,-,N/A,,Clear,0,2014-02-11 05:12:00
7:58 PM,71.2,66.4,85,29.99,10.0,SSE,1.2,-,0.00,,Clear,150,2014-02-11 05:58:00
8:58 PM,67.8,64.6,89,30.01,10.0,North,1.2,-,N/A,,Clear,350,2014-02-11 06:58:00
9:58 PM,66.0,63.7,92,30.02,10.0,WNW,2.3,-,N/A,,Clear,290,2014-02-11 07:58:00
10:58 PM,64.8,62.4,92,30.03,10.0,NW,2.3,-,N/A,,Clear,320,2014-02-11 08:58:00
11:58 PM,64.4,61.9,92,30.02,10.0,WNW,3.5,-,N/A,,Clear,290,2014-02-11 09:58:00